Lid_Strength_Index
1 1 1 1 1 1 1 1 1 1 1 1 1 1 1 1 0 1 0 1 1 1 0 1 1 0 1 1 1 1 1 1 3 2 1 -0 0 0 -0 -1 -0 -1 -1
1 1 1 1 1 1 1 1 1 1 1 1 1 1 1 1 1 1 1 1 2 2 1 1 1 1 1 0 1 1 1 1 2 3 2 1 1 0 -0 0 0 -1 -1
4 2 2 2 1 1 1 1 1 1 1 1 1 1 1 1 1 1 1 1 1 1 1 1 1 1 1 1 1 1 1 1 1 2 2 1 1 0 1 1 1 0 0
5 3 2 2 2 1 1 1 1 1 1 1 1 1 1 1 1 1 1 1 1 1 0 0 1 1 1 1 1 1 1 1 1 2 2 2 2 1 1 2 2 1 1
6 5 2 2 1 1 1 1 1 1 1 1 1 1 1 1 1 1 1 1 1 1 1 0 0 1 2 1 1 1 1 2 2 2 3 3 3 3 2 2 2 3 2
6 7 2 2 2 2 1 1 1 1 1 1 1 1 1 1 9 8 2 1 1 1 1 1 0 2 3 5 6 5 2 1 2 3 3 3 3 2 2 2 2 3 4
6 7 2 2 2 2 2 2 2 2 2 2 1 1 1 1 10 9 7 1 1 1 1 1 1 0 1 0 5 5 5 5 4 1 3 3 2 2 2 2 2 2 2
7 6 2 2 2 2 2 2 2 2 2 2 2 1 1 1 10 9 7 0 1 1 0 0 1 0 0 1 0 1 1 1 1 1 1 1 0 -0 0 1 1 2 1
4 3 3 2 3 3 3 3 2 2 2 2 2 2 2 4 11 11 4 1 1 1 0 0 0 0 7 8 1 1 1 2 7 8 7 6 7 6 2 0 2 2 3
4 3 2 2 3 3 3 2 2 2 2 2 3 2 5 3 12 10 4 1 1 1 1 0 7 2 10 9 1 1 2 3 3 3 4 5 5 4 6 -0 1 3 3
4 2 2 2 2 2 2 2 2 3 4 4 4 2 1 2 7 11 9 1 1 2 2 1 1 9 11 10 7 1 2 1 4 2 1 2 1 2 1 -0 -0 1 2
3 3 2 2 2 2 2 2 3 4 5 3 3 3 3 3 8 11 10 7 5 1 2 1 2 11 11 10 6 10 10 5 1 2 2 2 3 2 1 0 -0 -1 -0
3 3 3 2 2 3 3 2 3 3 3 3 3 4 4 3 5 12 12 10 6 1 1 4 11 12 11 9 11 10 8 1 1 2 2 2 1 1 0 1 0 0 1
3 3 3 3 3 2 2 2 3 3 3 3 3 3 3 3 4 4 5 5 8 5 7 5 7 8 8 6 6 4 1 1 1 2 2 2 2 1 1 1 2 1 1
3 3 3 3 3 5 6 3 2 1 2 2 2 2 3 3 3 5 4 2 1 4 4 3 3 4 4 3 2 1 1 1 1 2 2 3 3 3 3 2 2 1 2
3 3 3 3 4 5 4 6 13 11 11 10 8 3 2 8 10 11 10 11 11 10 2 2 3 4 4 3 2 2 1 2 1 2 3 3 4 4 4 3 2 3 2
3 3 3 4 3 3 3 3 5 9 13 13 12 11 9 9 11 11 12 12 11 8 2 2 3 3 4 3 2 2 2 1 1 1 2 3 3 3 4 4 3 2 2
3 6 3 3 3 3 2 3 3 4 4 5 12 10 12 12 12 12 12 9 5 4 2 2 2 3 3 2 2 2 2 2 1 1 2 2 3 4 3 2 2 2 2
3 3 2 2 2 3 2 2 2 3 3 5 7 10 12 13 13 13 11 2 3 3 2 2 2 2 2 2 2 1 2 1 1 2 2 2 2 3 4 4 4 9 7
2 7 4 2 2 2 2 3 3 3 3 3 3 7 8 6 5 4 2 1 2 2 2 2 1 2 2 1 1 1 1 1 1 1 1 2 2 2 3 3 3 3 3
2 2 8 2 2 2 2 2 2 2 3 4 5 6 10 2 4 3 3 2 2 2 1 2 2 2 2 1 1 1 1 1 1 1 1 1 2 3 2 2 2 1 1
2 2 2 2 2 2 2 2 2 3 3 5 5 7 13 2 2 2 2 2 1 1 1 1 1 2 1 2 2 2 1 1 1 1 1 1 1 2 2 2 1 2 2
2 2 2 2 2 6 2 2 3 3 4 3 3 2 2 2 3 4 6 7 6 5 6 5 5 6 6 5 4 2 1 1 0 0 2 2 2 2 2 2 3 3 2
2 2 2 2 2 3 3 3 3 6 4 2 2 2 3 5 6 7 8 9 9 9 9 9 9 9 8 6 8 7 5 5 3 -0 1 -0 1 2 1 2 2 2 2
2 2 2 2 2 3 4 4 4 3 3 3 3 5 6 8 8 9 10 10 10 10 11 11 11 11 11 10 9 9 13 15 6 9 2 3 3 3 2 4 5 6 6
2 2 2 2 2 2 3 4 4 3 4 5 6 7 8 10 11 11 12 12 13 11 11 12 12 13 12 14 15 15 16 15 12 14 7 6 7 7 8 8 8 9 9